STARLINK-11524, 62839

Orbit data source: Space-Track

STARLINK-11524, 62839 is a payload satellite owned by SpaceX/Seattle (US) in LEO that was launched on Mon, 27 Jan 2025 UTC via an FALCON 9 launch vehicle from the Air Force Eastern Test Range (AFETR). Payload-class satellites include a variety of spacecraft equipped with specific instruments for various scientific and technological missions. These include communications satellites like Starlink; space stations such as the ISS; scientific satellites like the Hubble; Earth observation satellites from companies like Planet Labs, Umbra, and HawkEye 360; GPS; miniature CubeSats for education and research; and military/defense satellites.

Loading next visibility...
Identifier
62839, 2025-019L
Orbit
LEO
Country
Flag of USUS
Related business
Manufacturer
SpaceX/Seattle
Mission
Operational Commercial Communications
Bus & Motor
STARLINK V2MD, Unknown motor
Mass
960 kg wet, ~910 kg dry
Launch date (UTC)
2025-01-27 (9 months ago)
Launch vehicle
FALCON 9
Launch site
Air Force Eastern Test Range (AFETR)
Object type
Payload
Rocket body
Debris
Shape & HBR
Box + 2 Pan, 18.1 m
Radar Cross Section
36.964 m², Large (>1 m²)

Expand to show TLE details & history
Last TLE update: 18 hours ago

TLE from 18 hours ago
0 STARLINK-11524
1 62839U 25019L   25309.49369561  .00311791  00000-0  23266-2 0  9990
2 62839  42.9997 334.9787 0005678 280.1534  79.8693 15.71000555 44346
Epoch: 2025-11-05T11:50Z
TLE epoch observation values (Epoch: 2025-11-05T11:50:55.300Z)
Latitude
-0.00004°
Longitude
112.28267°
Altitude
355.137 km
Speed
7.698 km/s
True Right ascension
22h 19m 54s
True Declination
0° 00' 00"
Sunlit
Object was in full shadow at epoch
Visualization orbit readout
Latitude
Unknown
Longitude
Unknown
Altitude
Unknown
Speed
Unknown
Apparent Right ascension
Unknown
Apparent Declination
Unknown
Sunlit
N/A
Visualization observer readout
Local Sidereal Time
02:19:14
Azimuth
Unknown
Elevation
Unknown
Doppler factor
Unknown
Orbital elements
Apogee altitude
361.843 km
Perigee altitude
354.193 km
Semi-major axis
6,736.155 km
Eccentricity
0.00057
Inclination
42.9997°
RAAN
334.9787°
Arg. of periapsis
280.1534°
True anomaly
79.93336°
Mean anomaly
79.8693°
Eccentric anomaly
79.90133°
Mean motion
3.92577 °/min
Orbital period
91.7 mins
BSTAR
0.0023266
Loading maneuver chart data...
Computing Atmospheric mass density...
Loading historical data...
Loading historical data...
Loading historical data...
Loading historical data...
Loading historical data...
Loading historical data...
Loading historical data...

Documentation

Showing up to 5 results
|